This demonstration page uses our WeatherBlox Daily Observations layout. Learn more.

Left ArrowRight Arrow

Hourly Observations for June 27, 2022

Temp ( °F °C ) Dew Point ( °F °C ) Humidity (%) Winds ( mph kmh ) Pressure ( in mb ) Visibility ( mi km ) Precip ( " mm )
12:53 am 00:53 Cloudy 77 25 70 21.1 79 79 Calm 30.07 1018 10 16 0.00 0.00
1:53 am 01:53 Clear 76 24.4 71 21.7 85 85 Calm 30.06 1018 10 16 0.00 0.00
2:53 am 02:53 Mostly Clear 74 23.3 70 21.1 88 88 Calm 30.05 1018 10 16 0.00 0.00
3:53 am 03:53 Mostly Clear 73 22.8 69 20.6 87 87 Calm 30.04 1017 10 16 0.00 0.00
4:53 am 04:53 Cloudy 75 23.9 70 21.1 84 84 Calm 30.04 1017 10 16 0.00 0.00
5:53 am 05:53 Cloudy 76 24.4 69 20.6 79 79 SE 5 7 30.05 1018 10 16 0.00 0.00
6:53 am 06:53 Mostly Cloudy 75 23.9 69 20.6 82 82 SSW 8 13 30.05 1018 10 16 0.00 0.00
7:53 am 07:53 Partly Cloudy 76 24.4 69 20.6 79 79 SSW 8 13 30.06 1018 10 16 0.00 0.00
8:53 am 08:53 Cloudy 78 25.6 69 20.6 74 74 WSW 6 9 30.08 1019 10 16 0.00 0.00
9:53 am 09:53 Mostly Sunny 81 27.2 69 20.6 67 67 Calm 30.09 1019 10 16 0.00 0.00
10:53 am 10:53 Sunny 81 27.2 70 21.1 69 69 SSW 5 7 30.09 1019 10 16 0.00 0.00
11:53 am 11:53 Sunny 84 28.9 71 21.7 65 65 N 3 6 30.09 1019 10 16 0.00 0.00
12:53 pm 12:53 Sunny 86 30 69 20.6 57 57 VRB 5 7 30.08 1019 10 16 0.00 0.00
1:53 pm 13:53 Mostly Cloudy 87 30.6 70 21.1 57 57 VRB 3 6 30.05 1018 10 16 0.00 0.00
2:32 pm 14:32 Mostly Cloudy with Nearby Thunderstorms 87 30.6 71 21.7 59 59 VRB 5 7 30.02 1016 10 16 0.00 0.00
2:53 pm 14:53 Mostly Cloudy 87 30.6 71 21.7 59 59 N 5 7 30.02 1017 10 16 0.00 0.00
3:39 pm 15:39 Cloudy with Thunderstorms 83 28.3 72 22.2 70 70 W 8 13 30.00 1016 10 16 0.00 0.00
3:53 pm 15:53 Mostly Cloudy with Thunderstorms 83 28.3 73 22.8 72 72 WNW 13 20 30.02 1017 10 16 0.00 0.00
4:53 pm 16:53 Mostly Cloudy with Thunderstorms 80 26.7 71 21.7 74 74 S 12 19 30.05 1018 10 16 0.00 0.00
5:01 pm 17:01 Cloudy with Nearby Thunderstorms 78 25.6 70 21.1 76 76 S 18 30 30.05 1018 10 16 0.00 0.00
5:03 pm 17:03 Cloudy with Nearby Thunderstorms 78 25.6 70 21.1 76 76 SSE 13 20 30.04 1017 10 16 0.00 0.00
5:31 pm 17:31 Cloudy 77 25 68 20 74 74 S 9 15 30.05 1018 10 16 0.00 0.00
5:46 pm 17:46 Cloudy 77 25 68 20 74 74 S 9 15 30.05 1018 10 16 0.00 0.00
5:53 pm 17:53 Mostly Cloudy 77 25 68 20 74 74 S 8 13 30.05 1018 10 16 0.00 0.00
6:53 pm 18:53 Sunny 78 25.6 67 19.4 69 69 S 5 7 30.03 1017 10 16 0.00 0.00
7:53 pm 19:53 Sunny 77 25 67 19.4 71 71 SW 5 7 30.04 1017 10 16 0.00 0.00
8:53 pm 20:53 Clear 76 24.4 68 20 77 77 Calm 30.05 1018 10 16 0.00 0.00
9:53 pm 21:53 Clear 75 23.9 69 20.6 82 82 S 3 6 30.05 1018 10 16 0.00 0.00
10:53 pm 22:53 Mostly Clear 75 23.9 69 20.6 82 82 W 5 7 30.07 1018 10 16 0.00 0.00
11:53 pm 23:53 Clear 75 23.9 69 20.6 82 82 S 3 6 30.06 1018 10 16 0.00 0.00

Powered by AerisWeather